Regional Weather Roundup
Issued by NWS

Home | Current Version | Previous Version | Graphics & Text | Print | Product List | Glossary Off
Versions: 1 2 3 4 5 6 7 8 9 10 11 12 13 14 15 16 17 18 19 20 21 22 23 24 25 26 27 28 29 30 31 32 33 34 35 36 37 38 39 40 41 42 43 44 45 46 47 48 49 50

000
ASUS43 KDMX 051207
RWRIA

WEATHER ROUNDUP FOR IOWA
NATIONAL WEATHER SERVICE DES MOINES IA
700 AM CDT SUN JUL 05 2015

NOTE: "FAIR" INDICATES FEW OR NO CLOUDS BELOW 12,000 FEET WITH NO
SIGNIFICANT WEATHER AND/OR OBSTRUCTIONS TO VISIBILITY.

* - THESE STATIONS ARE NOT NWS STATIONS...THUS NOT UNDER NWS
QUALITY CONTROL.  THEY ALSO DO NOT REPORT WEATHER SUCH
AS PRECIPITATION OR FOG.

IAZ001>003-012>014-020>022-031>034-043>046-051300-
   NORTHWEST IOWA

CITY           SKY/WX    TMP DP  RH WIND       PRES   REMARKS
CARROLL *      SUNNY     64  63  94 SE6       29.96R
CHEROKEE *     CLOUDY    65  64  94 S5        29.94S
DENISON *      SUNNY     66  63  88 VRB5G17   29.94R
LE MARS *      SUNNY     68  64  88 SW5       29.93R
ORANGE CITY *  SUNNY     64  61  88 CALM      29.94R
SHELDON *      SUNNY     66  66 100 S7        29.92R
SIOUX CITY     CLOUDY    68  61  78 SE9       29.92R
6HR MIN TEMP:  67; 6HR MAX TEMP:  69;

SPENCER        CLOUDY    65  59  81 S7        29.94R
6HR MIN TEMP:  63; 6HR MAX TEMP:  66;

STORM LAKE *   SUNNY     64  63  94 S9        29.96R
$$

IAZ055>058-069>071-079>083-090>094-051300-
   SOUTHWEST IOWA

CITY           SKY/WX    TMP DP  RH WIND       PRES   REMARKS
ATLANTIC *     SUNNY     68  64  88 S9        29.96R
AUDUBON *      SUNNY     64  61  88 CALM      29.97S
CLARINDA *     SUNNY     68  64  88 SE6       29.96F
COUNCIL BLFS * CLEAR     66  64  94 SE8       29.94R FOG
CRESTON *      SUNNY     68  64  88 S10       29.99R
HARLAN  *      SUNNY     66  66 100 S7        29.98R
LAMONI         MOSUNNY   66  63  90 S7        30.00R
6HR MIN TEMP:  65; 6HR MAX TEMP:  67;

RED OAK *      SUNNY     68  64  88 S8        29.95R
SHENANDOAH *   CLEAR     66  64  94 SE8       29.94S FOG
$$

IAZ047>049-059>061-072>074-084-051300-
   CENTRAL IOWA

CITY           SKY/WX    TMP DP  RH WIND       PRES   REMARKS
AMES           SUNNY     61  60  97 S5        29.99R FOG
6HR MIN TEMP:  58; 6HR MAX TEMP:  62;

ANKENY *       SUNNY     64  63  94 S3        29.99R
CHARITON *       N/A     64  63  94 SE6       29.99F
DES MOINES     CLOUDY    66  61  84 S8        29.98S
6HR MIN TEMP:  65; 6HR MAX TEMP:  68;

GRINNELL*      SUNNY     64  61  90 S7        30.01S FOG
KNOXVILLE *    SUNNY     64  61  88 S5        29.99S
MARSHALLTOWN   SUNNY     64  61  90 SE7       30.00R
6HR MIN TEMP:  60; 6HR MAX TEMP:  64;

PELLA *        SUNNY     64  64  99 SE3       30.01S FOG
PERRY *          N/A     63  63 100 CALM      29.99R
$$

IAZ004>006-015-016-023>025-035-036-051300-
   NORTH CENTRAL IOWA

CITY           SKY/WX    TMP DP  RH WIND       PRES   REMARKS
ALGONA *       SUNNY     64  61  88 S9        29.98R
CLARION *      SUNNY     64  61  88 S8G14     29.99R
ESTHERVILLE    CLOUDY    61  60  97 S7        29.95R
6HR MIN TEMP:  59; 6HR MAX TEMP:  62;

FORT DODGE *   PTSUNNY   66  59  77 S7        29.99R
MASON CITY       N/A     61  60  97 S6        30.00R
6HR MIN TEMP:  58; 6HR MAX TEMP:  62;

FOREST CITY *  SUNNY     61  61 100 SE6       29.99R
IOWA FALLS *     N/A     61  59  94 SE3       30.01R
$$

IAZ007>011-017>019-026>030-037>042-050>054-066-051300-
   NORTHEAST IOWA

CITY           SKY/WX    TMP DP  RH WIND       PRES   REMARKS
CEDAR RAPIDS   SUNNY     64  63  96 S6        30.01F FOG
6HR MIN TEMP:  61; 6HR MAX TEMP:  64;

CHARLES CITY * SUNNY     63  63 100 SE6       30.01R
CLINTON *      SUNNY     63  59  88 SE3       30.09R
DECORAH *        N/A    N/A N/A N/A MISG        N/A
DUBUQUE        SUNNY     62  59  90 S5        30.05S FOG
6HR MIN TEMP:  59; 6HR MAX TEMP:  62;

MONTICELLO *   SUNNY     63  63 100 SE6       30.03F FOG
OELWEIN *        N/A     63  61  94 S6        30.04R FOG
WATERLOO       SUNNY     66  61  84 S7        30.00R
6HR MIN TEMP:  63; 6HR MAX TEMP:  66;

$$

IAZ064-065-067-068-078-051300-
   EAST CENTRAL IOWA

CITY           SKY/WX    TMP DP  RH WIND       PRES   REMARKS
DAVENPORT      SUNNY     64  61  90 SE3       30.06R FOG
6HR MIN TEMP:  59; 6HR MAX TEMP:  64;

IOWA CITY      SUNNY     62  61  96 SE5       30.04S FOG
6HR MIN TEMP:  61; 6HR MAX TEMP:  66;

MT. PLEASANT * SUNNY     66  62  88 CALM      30.04R FOG
MUSCATINE *    SUNNY     61  61 100 CALM      30.05S FOG
QUAD CITIES    SUNNY     65  60  84 E3        30.05S HAZE
6HR MIN TEMP:  61; 6HR MAX TEMP:  66;

$$

IAZ062-063-075>077-085>089-095>099-051300-
   SOUTHEAST IOWA

CITY           SKY/WX    TMP DP  RH WIND       PRES   REMARKS
BURLINGTON     SUNNY     65  64  97 CALM      30.04S FOG
6HR MIN TEMP:  63; 6HR MAX TEMP:  67;

FAIRFIELD *    SUNNY     66  63  88 S5        30.03S FOG
FORT MADISON * SUNNY     66  63  88 S5        30.05S
KEOKUK *       SUNNY     64  63  94 CALM      30.04R FOG
OSKALOOSA *      N/A     62  61  97 CALM      30.02S FOG
CENTERVILLE *  SUNNY     63  63 100 SE7       30.03S
OTTUMWA        SUNNY     65  64  97 S7        30.00S FOG
6HR MIN TEMP:  63; 6HR MAX TEMP:  65;

WASHINGTON *   SUNNY     64  63  94 S6        30.04S FOG
$$

ABBREVIATIONS USED IN REMARKS
   TC - TEMPERATURES IN CELSIUS
  WCI - WIND CHILL INDEX
   HX - HEAT INDEX
  VSB - VISIBILITY
$$




USA.gov is the U.S. government's official web portal to all federal, state and local government web resources and services.